Location: Franzen
(48.6167°N, 15.3833°E)
Time: 23:20:39
(UTC+00:00)

Transit 2A - Pass Details

Date: 11 August 2021
Orbit: 594 x 964 km, 66.7° (Epoch: 26 September)

Event Time Altitude Azimuth Distance (km) Brightness Sun altitude
Rises 04:41:42 0° 257° (WSW) 2,903 8.3 7.8°
Reaches altitude 10° 04:44:18 10° 273° (W) 2,042 7.7 8.2°
Maximum altitude 04:47:59 23° 326° (NW) 1,435 7.3 8.8°
Drops below altitude 10° 04:51:55 10° 18° (NNE) 2,211 8.9 9.4°
Sets 04:54:53 0° 33° (NNE) 3,209 10.0 9.9°
